Lebanon, NH

10:59 AM EDT on June 23, 2018 (GMT -0400)
Lebanon Municipal

Weather History for KLEB - November, 2016

Change the Weather History Date:

Saturday, November 12, 2016

  Actual Average Record
Temperature  
Mean Temperature 40 °F -  
Max Temperature 46 °F 45 °F 66 °F (2012)
Min Temperature 33 °F 30 °F 9 °F (1976)
Degree Days  
Heating Degree Days 26    
Moisture  
Dew Point 21 °F    
Average Humidity 49    
Maximum Humidity 59    
Minimum Humidity 35    
Precipitation  
Precipitation 0.00 in - - ()
Sea Level Pressure  
Sea Level Pressure 30.13 in    
Wind  
Wind Speed 8 mph (West)    
Max Wind Speed 12 mph    
Max Gust Speed 26 mph    
Visibility 10 miles    
Events      
Averages and records for this station are not official NWS values.
T = Trace of Precipitation, MM = Missing Value Source: NWS Daily Summary

Daily Weather History Graph

Daily Weather History Graph

Search for Another Location

Airport or City:

Astronomy

Nov. 12, 2016 Rise Set
Actual Time 6:39 AM EST 4:26 PM EST
Civil Twilight 6:09 AM EST 4:57 PM EST
Nautical Twilight 5:34 AM EST 5:31 PM EST
Astronomical Twilight 5:00 AM EST 6:05 PM EST
Moon 3:38 PM EST (11/12) 3:52 AM EST (11/12)
Length of Visible Light 10h 47m
Length of Day
9h 46m
Waxing Gibbous, 95% of the Moon is Illuminated
Nov 12
Waxing Gibbous
Nov 14
Full
Nov 21
Last Quarter
Nov 29
New
Dec 7
First Quarter

Hourly Weather History & Observations

Time (EST) Temp. Windchill Dew Point Humidity Pressure Visibility Wind Dir Wind Speed Gust Speed Precip Events Conditions
12:53 AM 34.0 °F 28.0 °F 17.1 °F 50% 30.12 in 10.0 mi NNW 6.9 mph - N/A   Partly Cloudy
1:53 AM 35.1 °F 26.9 °F 17.1 °F 48% 30.15 in 10.0 mi North 11.5 mph 26.5 mph N/A   Clear
2:53 AM 34.0 °F 26.0 °F 18.0 °F 52% 30.16 in 10.0 mi North 10.4 mph - N/A   Clear
3:53 AM 33.1 °F 27.7 °F 19.0 °F 56% 30.18 in 10.0 mi NNE 5.8 mph - N/A   Mostly Cloudy
4:53 AM 33.1 °F 26.1 °F 19.0 °F 56% 30.19 in 10.0 mi North 8.1 mph - N/A   Clear
5:53 AM 33.1 °F 24.9 °F 19.0 °F 56% 30.21 in 10.0 mi North 10.4 mph 19.6 mph N/A   Scattered Clouds
6:53 AM 33.1 °F 25.5 °F 19.0 °F 56% 30.24 in 10.0 mi North 9.2 mph - N/A   Clear
7:53 AM 34.0 °F 28.8 °F 19.9 °F 56% 30.26 in 10.0 mi NW 5.8 mph - N/A   Clear
9:53 AM 39.0 °F 32.3 °F 19.9 °F 46% 30.26 in 10.0 mi NNW 10.4 mph - N/A   Clear
10:53 AM 41.0 °F 37.1 °F 21.0 °F 45% 30.24 in 10.0 mi NNW 5.8 mph - N/A   Clear
11:53 AM 43.0 °F 41.3 °F 21.0 °F 42% 30.19 in 10.0 mi WNW 3.5 mph - N/A   Clear
12:53 PM 45.0 °F 41.2 °F 19.9 °F 37% 30.16 in 10.0 mi West 6.9 mph - N/A   Clear
1:53 PM 46.0 °F 42.5 °F 19.9 °F 35% 30.13 in 10.0 mi Variable 6.9 mph - N/A   Clear
2:53 PM 46.0 °F 41.9 °F 19.9 °F 35% 30.12 in 10.0 mi West 8.1 mph - N/A   Clear
3:53 PM 44.1 °F 39.5 °F 21.0 °F 40% 30.11 in 10.0 mi SW 8.1 mph - N/A   Clear
4:53 PM 41.0 °F 35.8 °F 21.0 °F 45% 30.09 in 10.0 mi SSW 8.1 mph - N/A   Clear
5:53 PM 36.0 °F 29.0 °F 21.9 °F 57% 30.08 in 10.0 mi South 9.2 mph - N/A   Clear
6:53 PM 39.0 °F 32.8 °F 21.9 °F 50% 30.08 in 10.0 mi South 9.2 mph - N/A   Clear
7:53 PM 37.0 °F 30.4 °F 24.1 °F 59% 30.07 in 10.0 mi South 9.2 mph - N/A   Clear
8:53 PM 39.0 °F 32.3 °F 25.0 °F 57% 30.06 in 10.0 mi South 10.4 mph - N/A   Clear
9:53 PM 39.9 °F 32.9 °F 26.1 °F 58% 30.02 in 10.0 mi South 11.5 mph - N/A   Clear
10:53 PM 41.0 °F 35.2 °F 25.0 °F 53% 30.00 in 10.0 mi SSW 9.2 mph - N/A   Clear
11:53 PM 43.0 °F 40.3 °F 25.0 °F 49% 29.98 in 10.0 mi South 4.6 mph - N/A   Clear